Regional Weather Roundup
Issued by NWS Raleigh/Durham, NC

Current Version | Previous Version | Text Only | Print | Product List | Glossary On
Versions: 1 2 3 4 5 6 7 8 9 10 11 12 13 14 15 16 17 18 19 20 21 22 23 24 25 26 27 28 29 30 31 32 33 34 35 36 37 38 39 40 41 42 43 44 45 46 47 48 49 50
000 ASUS42 KRAH 011110 RWRRAH NORTH CAROLINA WEATHER ROUNDUP NATIONAL WEATHER SERVICE RALEIGH NC 700 AM EDT MON SEP 01 2014 NOTE: "FAIR" INDICATES FEW OR NO CLOUDS BELOW 12,000 FEET WITH NO SIGNIFICANT WEATHER AND/OR OBSTRUCTIONS TO VISIBILITY. NCZ001-053-055-056-065-067-011200- WESTERN NORTH CAROLINA CITY SKY/WX TMP DP RH WIND PRES REMARKS ASHEVILLE FOG 67 66 97 CALM 30.21S VSB 1/2 JEFFERSON CLOUDY 71 59 65 NW12G17 30.22S HICKORY CLOUDY 69 68 96 CALM 30.13S RUTHERFORDTON MOCLDY 68 67 98 CALM 30.15R MOUNT AIRY CLOUDY 71 69 93 CALM 30.15R FOG BOONE CLOUDY 69 59 70 W8G16 30.23S $$ NCZ021-022-025-041-071-084-088-011200- CENTRAL NORTH CAROLINA CITY SKY/WX TMP DP RH WIND PRES REMARKS CHARLOTTE MOCLDY 72 69 90 CALM 30.13R GREENSBORO PTCLDY 71 70 96 SW5 30.12R WINSTON-SALEM PTCLDY 73 69 87 CALM 30.13R RALEIGH-DURHAM MOCLDY 74 71 91 SW6 30.11R FORT BRAGG CLEAR 75 74 95 SW3 30.11R FAYETTEVILLE CLEAR 74 73 97 SW5 30.11R BURLINGTON PTCLDY 71 68 90 CALM 30.11R LAURINBURG FOG 72 71 97 CALM 30.12S VSB 1 $$ NCZ011-015-027-028-043-044-047-080-103-011200- NORTHEASTERN NORTH CAROLINA CITY SKY/WX TMP DP RH WIND PRES REMARKS ROCKY MT-WILSO CLOUDY 75 73 93 S3 30.10S GREENVILLE PTCLDY 73 73 100 SW3 30.12S WASHINGTON CLEAR 75 73 95 CALM 30.12R ELIZABETH CITY MOCLDY 77 75 93 SW8 30.10R MANTEO PTCLDY 78 75 92 SW7 30.11S CAPE HATTERAS CLEAR 79 75 87 W9 30.11R $$ NCZ078-087-090-091-093-098-101-011200- SOUTHEASTERN NORTH CAROLINA CITY SKY/WX TMP DP RH WIND PRES REMARKS LUMBERTON PTCLDY 73 72 96 CALM 30.11R FOG GOLDSBORO CLEAR 74 74 99 SE2 30.10R KINSTON CLEAR 73 73 100 CALM 30.12R FOG KENANSVILLE CLEAR 72 71 96 CALM 30.13R NEW BERN CLEAR 76 73 91 CALM 30.13R CHERRY POINT PTCLDY 77 75 93 SW3 30.13R BEAUFORT PTCLDY 80 77 90 SW12 30.12R JACKSONVILLE CLEAR 75 74 96 CALM 30.11R WILMINGTON CLEAR 74 73 97 S3 30.11R $$

USA.gov is the U.S. government's official web portal to all federal, state and local government web resources and services.